TimeEST,TemperatureF,Dew PointF,Humidity,Sea Level PressureIn,VisibilityMPH,Wind Direction,Wind SpeedMPH,Gust SpeedMPH,PrecipitationIn,Events,Conditions,WindDirDegrees,DateUTC
12:15 AM,53.2,50.2,89,29.83,5.0,WSW,5.8,-,N/A,,Drizzle,240,2012-11-12 05:15:00
12:34 AM,52.9,50.2,91,29.83,4.0,SW,5.8,-,N/A,Rain,Rain,220,2012-11-12 05:34:00
1:15 AM,52.7,50.2,91,29.84,7.0,SSW,8.1,-,N/A,Rain,Light Rain,210,2012-11-12 06:15:00
1:54 AM,52.3,50.0,92,29.82,10.0,SSW,6.9,-,N/A,Rain,Light Rain,200,2012-11-12 06:54:00
2:15 AM,52.3,50.0,92,29.81,10.0,SSW,6.9,-,N/A,,Light Drizzle,210,2012-11-12 07:15:00
2:34 AM,52.3,49.8,91,29.81,10.0,SW,6.9,-,N/A,,Overcast,220,2012-11-12 07:34:00
2:54 AM,52.3,49.5,90,29.81,10.0,SSW,10.4,18.4,N/A,Rain,Light Rain,200,2012-11-12 07:54:00
3:15 AM,52.0,49.5,91,29.82,5.0,SSW,8.1,21.9,N/A,Rain,Rain,210,2012-11-12 08:15:00
3:34 AM,51.8,49.5,92,29.83,4.0,West,21.9,29.9,N/A,Rain,Rain,260,2012-11-12 08:34:00
4:15 AM,46.6,43.2,88,29.83,10.0,WSW,8.1,-,N/A,Rain,Light Rain,240,2012-11-12 09:15:00
4:34 AM,46.0,42.8,88,29.84,10.0,SW,8.1,-,N/A,Rain,Light Rain,230,2012-11-12 09:34:00
4:54 AM,45.5,42.1,88,29.85,7.0,WSW,11.5,17.3,N/A,Rain,Light Rain,240,2012-11-12 09:54:00
5:15 AM,44.6,41.7,90,29.84,10.0,SSW,4.6,-,N/A,Rain,Light Rain,200,2012-11-12 10:15:00
5:34 AM,44.2,41.9,91,29.85,10.0,SW,6.9,-,N/A,,Overcast,220,2012-11-12 10:34:00
5:54 AM,44.1,41.5,91,29.86,10.0,SW,6.9,-,N/A,Rain,Light Rain,230,2012-11-12 10:54:00
6:15 AM,43.5,40.8,90,29.86,10.0,West,6.9,-,N/A,Rain,Light Rain,280,2012-11-12 11:15:00
6:34 AM,42.6,39.9,90,29.87,5.0,West,6.9,-,N/A,Rain,Light Rain,270,2012-11-12 11:34:00
6:54 AM,41.5,38.7,89,29.89,7.0,West,10.4,17.3,N/A,Rain,Light Rain,270,2012-11-12 11:54:00
7:34 AM,40.1,37.4,90,29.89,10.0,West,8.1,-,N/A,,Overcast,260,2012-11-12 12:34:00
7:54 AM,39.0,36.3,90,29.90,7.0,West,13.8,18.4,N/A,Rain,Light Rain,280,2012-11-12 12:54:00
8:15 AM,38.3,35.8,91,29.90,10.0,West,9.2,-,N/A,Rain,Light Rain,280,2012-11-12 13:15:00
8:34 AM,37.9,35.4,91,29.90,7.0,WNW,12.7,-,N/A,Snow,Light Snow,290,2012-11-12 13:34:00
8:55 AM,37.4,34.5,89,29.90,10.0,West,11.5,-,N/A,,Overcast,280,2012-11-12 13:55:00
9:15 AM,37.2,34.0,88,29.92,10.0,West,9.2,-,N/A,,Overcast,260,2012-11-12 14:15:00
9:34 AM,36.9,33.6,88,29.92,7.0,West,6.9,-,N/A,,Overcast,260,2012-11-12 14:34:00
9:55 AM,36.9,33.1,86,29.93,10.0,West,10.4,-,N/A,,Overcast,260,2012-11-12 14:55:00
10:15 AM,36.1,30.6,80,29.93,10.0,West,13.8,-,N/A,,Overcast,280,2012-11-12 15:15:00
10:55 AM,34.9,28.6,78,29.96,10.0,West,6.9,19.6,N/A,,Overcast,270,2012-11-12 15:55:00
11:14 AM,34.9,28.4,77,29.95,10.0,WSW,9.2,16.1,N/A,,Overcast,250,2012-11-12 16:14:00
11:34 AM,34.9,28.2,77,29.96,10.0,West,11.5,18.4,N/A,,Overcast,260,2012-11-12 16:34:00
11:55 AM,34.9,26.8,72,29.95,10.0,West,10.4,18.4,N/A,,Overcast,270,2012-11-12 16:55:00
12:14 PM,34.5,26.6,73,29.95,10.0,West,11.5,21.9,N/A,,Overcast,280,2012-11-12 17:14:00
12:34 PM,34.7,26.6,72,29.95,10.0,West,13.8,19.6,N/A,,Overcast,270,2012-11-12 17:34:00
12:55 PM,34.9,24.8,67,29.94,10.0,WSW,16.1,23.0,N/A,,Overcast,250,2012-11-12 17:55:00
1:34 PM,34.7,25.2,68,29.95,10.0,WSW,16.1,21.9,N/A,,Overcast,250,2012-11-12 18:34:00
1:55 PM,35.1,23.9,64,29.96,10.0,West,9.2,23.0,N/A,,Overcast,260,2012-11-12 18:55:00
2:14 PM,34.5,22.1,61,29.96,10.0,WSW,16.1,23.0,N/A,,Overcast,240,2012-11-12 19:14:00
2:34 PM,34.3,22.8,63,29.96,10.0,WSW,11.5,19.6,N/A,,Overcast,240,2012-11-12 19:34:00
2:55 PM,34.0,23.7,66,29.97,10.0,WSW,12.7,21.9,N/A,,Overcast,250,2012-11-12 19:55:00
3:14 PM,34.0,23.7,66,29.97,10.0,WSW,9.2,20.7,N/A,,Overcast,250,2012-11-12 20:14:00
3:34 PM,33.8,21.7,61,29.98,10.0,WSW,13.8,24.2,N/A,,Overcast,250,2012-11-12 20:34:00
3:55 PM,32.9,22.5,65,29.99,10.0,West,20.7,27.6,N/A,,Overcast,280,2012-11-12 20:55:00
4:14 PM,32.5,21.9,65,30.00,10.0,WSW,11.5,23.0,N/A,,Overcast,240,2012-11-12 21:14:00
4:35 PM,32.4,22.1,66,30.01,10.0,WSW,10.4,-,N/A,,Overcast,250,2012-11-12 21:35:00
4:55 PM,32.0,20.5,63,30.03,10.0,West,11.5,26.5,N/A,,Overcast,270,2012-11-12 21:55:00
5:14 PM,32.0,21.4,65,30.03,10.0,West,10.4,25.3,N/A,,Overcast,260,2012-11-12 22:14:00
5:35 PM,32.0,21.4,65,30.04,10.0,SW,15.0,19.6,N/A,,Overcast,230,2012-11-12 22:35:00
5:55 PM,32.0,22.1,67,30.05,10.0,WSW,9.2,23.0,N/A,Snow,Light Snow,250,2012-11-12 22:55:00
6:14 PM,31.8,22.5,68,30.06,10.0,West,12.7,19.6,N/A,Snow,Light Snow,260,2012-11-12 23:14:00
6:35 PM,31.3,23.2,72,30.07,5.0,West,9.2,20.7,N/A,Snow,Light Snow,270,2012-11-12 23:35:00
6:54 PM,31.1,23.7,74,30.07,5.0,WSW,10.4,-,N/A,Snow,Light Snow,250,2012-11-12 23:54:00
7:14 PM,30.7,24.3,77,30.08,4.0,WSW,6.9,-,N/A,Snow,Light Snow,240,2012-11-13 00:14:00
7:54 PM,30.9,24.6,77,30.08,7.0,West,8.1,-,N/A,Snow,Light Snow,270,2012-11-13 00:54:00
8:14 PM,30.9,23.0,72,30.10,10.0,West,20.7,25.3,N/A,Snow,Light Snow,280,2012-11-13 01:14:00
8:35 PM,30.2,21.6,70,30.10,10.0,West,13.8,21.9,N/A,,Overcast,270,2012-11-13 01:35:00
8:54 PM,30.6,19.8,64,30.11,10.0,West,10.4,13.8,N/A,,Overcast,280,2012-11-13 01:54:00
9:14 PM,30.7,17.6,58,30.12,10.0,West,9.2,18.4,N/A,,Overcast,270,2012-11-13 02:14:00
9:35 PM,30.7,16.9,56,30.13,10.0,WNW,12.7,17.3,N/A,,Overcast,290,2012-11-13 02:35:00
9:54 PM,30.7,16.3,55,30.14,10.0,West,10.4,-,N/A,,Overcast,280,2012-11-13 02:54:00
10:14 PM,30.6,16.0,55,30.15,10.0,West,9.2,18.4,N/A,,Overcast,260,2012-11-13 03:14:00
10:35 PM,30.6,16.5,56,30.15,10.0,West,4.6,-,N/A,,Overcast,260,2012-11-13 03:35:00
10:54 PM,30.6,17.2,58,30.16,10.0,WSW,8.1,-,N/A,,Overcast,250,2012-11-13 03:54:00
11:14 PM,30.0,19.2,64,30.17,10.0,WSW,8.1,-,N/A,,Overcast,250,2012-11-13 04:14:00
11:35 PM,29.7,20.8,70,30.18,7.0,West,10.4,-,N/A,Snow,Light Snow,270,2012-11-13 04:35:00
11:54 PM,29.3,21.2,72,30.19,10.0,West,8.1,-,N/A,Snow,Light Snow,260,2012-11-13 04:54:00